TimeEDT,TemperatureF,Dew PointF,Humidity,Sea Level PressureIn,VisibilityMPH,Wind Direction,Wind SpeedMPH,Gust SpeedMPH,PrecipitationIn,Events,Conditions,WindDirDegrees,DateUTC
12:52 AM,41.0,34.0,76,30.04,10.0,NNW,3.5,-,N/A,,Clear,330,2013-03-30 04:52:00
1:52 AM,39.9,34.0,79,30.04,10.0,Calm,Calm,-,N/A,,Scattered Clouds,0,2013-03-30 05:52:00
2:52 AM,39.9,36.0,86,30.03,10.0,NNW,4.6,-,N/A,,Scattered Clouds,330,2013-03-30 06:52:00
3:52 AM,42.1,35.1,76,30.04,10.0,NNW,4.6,-,0.00,Rain,Light Rain,330,2013-03-30 07:52:00
4:52 AM,42.1,34.0,73,30.03,10.0,Variable,5.8,-,0.00,,Overcast,0,2013-03-30 08:52:00
5:52 AM,42.1,33.1,70,30.04,10.0,Variable,3.5,-,N/A,,Overcast,0,2013-03-30 09:52:00
6:52 AM,42.1,33.1,70,30.05,10.0,Variable,4.6,-,N/A,,Overcast,0,2013-03-30 10:52:00
7:52 AM,43.0,33.1,68,30.07,9.0,NNW,4.6,-,N/A,,Overcast,330,2013-03-30 11:52:00
8:52 AM,46.0,33.1,61,30.07,10.0,NW,6.9,-,N/A,,Partly Cloudy,320,2013-03-30 12:52:00
9:52 AM,46.9,33.1,59,30.07,10.0,Variable,5.8,-,N/A,,Clear,0,2013-03-30 13:52:00
10:52 AM,48.9,33.1,54,30.08,10.0,Variable,4.6,-,N/A,,Clear,0,2013-03-30 14:52:00
11:52 AM,51.1,32.0,48,30.07,10.0,Variable,5.8,-,N/A,,Clear,0,2013-03-30 15:52:00
12:52 PM,51.1,30.9,46,30.07,10.0,Variable,5.8,-,N/A,,Clear,0,2013-03-30 16:52:00
1:52 PM,52.0,28.9,41,30.06,10.0,Calm,Calm,-,N/A,,Clear,0,2013-03-30 17:52:00
2:52 PM,51.1,33.1,50,30.06,10.0,SSE,6.9,-,N/A,,Partly Cloudy,160,2013-03-30 18:52:00
3:52 PM,48.9,33.1,54,30.06,10.0,SSW,10.4,-,N/A,,Clear,200,2013-03-30 19:52:00
4:52 PM,48.0,35.1,61,30.06,10.0,SW,8.1,-,N/A,,Clear,220,2013-03-30 20:52:00
5:52 PM,46.0,34.0,63,30.07,10.0,Variable,4.6,-,N/A,,Clear,0,2013-03-30 21:52:00
6:52 PM,44.1,34.0,68,30.08,10.0,SW,6.9,-,N/A,,Clear,230,2013-03-30 22:52:00
7:52 PM,43.0,35.1,74,30.09,10.0,SW,6.9,-,N/A,,Clear,220,2013-03-30 23:52:00
8:52 PM,42.1,36.0,79,30.11,10.0,SSW,6.9,-,N/A,,Clear,210,2013-03-31 00:52:00
9:52 PM,42.1,36.0,79,30.11,10.0,SW,4.6,-,N/A,,Clear,220,2013-03-31 01:52:00
10:52 PM,41.0,36.0,82,30.12,10.0,SW,4.6,-,N/A,,Clear,220,2013-03-31 02:52:00
11:52 PM,39.0,36.0,89,30.12,10.0,SW,3.5,-,N/A,,Clear,220,2013-03-31 03:52:00